Wind_Speed
8 8 8 8 8 8 8 8 8 8 7 7 7 7 7 8 8 8 8 8 8 9 9 9 10 10 11 11 12 12 12 13 13 14 14 14 15 16
8 9 9 9 9 9 9 9 9 9 9 9 8 9 8 8 8 8 8 8 9 9 10 11 11 12 12 12 12 13 13 14 14 15 15 15 16 17
9 9 9 9 10 10 9 9 9 9 9 9 9 8 8 8 8 8 9 10 11 12 12 12 13 13 14 14 15 15 15 16 16 16 17 17 17 18
10 10 10 10 10 10 9 9 9 9 9 8 8 9 9 9 9 10 10 11 12 13 13 14 14 15 15 15 16 17 17 17 18 18 18 19 19 19
11 11 10 10 10 10 10 10 10 10 9 9 9 9 10 10 10 11 11 12 12 14 14 15 15 16 16 16 17 18 17 17 18 18 19 20 21 21
12 12 12 11 11 11 11 11 11 10 10 10 10 10 11 11 12 12 13 13 13 14 15 16 16 17 17 18 18 18 19 19 20 20 21 21 22 23
12 12 12 12 12 12 12 12 12 12 12 12 12 13 13 13 13 14 14 15 15 15 16 17 18 19 19 19 20 20 20 21 21 21 22 22 23 24
14 14 14 13 13 13 14 14 14 13 13 14 14 14 14 15 15 15 16 17 17 18 18 18 19 19 20 20 21 21 22 22 22 23 23 24 25 25
15 15 15 15 15 15 15 15 15 15 15 15 15 16 16 17 17 17 17 18 18 19 19 19 19 19 20 20 21 22 22 23 24 24 25 26 26 27
16 16 16 16 16 17 17 17 17 17 17 17 17 17 17 18 18 18 18 19 19 20 20 20 20 21 21 22 22 23 24 24 25 25 27 27 28 29
17 17 17 17 18 18 18 18 19 19 19 19 19 19 19 19 19 19 19 20 20 21 21 21 21 22 23 24 24 25 25 26 26 27 28 29 29 30
18 18 18 18 19 19 20 20 20 20 21 21 21 21 20 21 21 22 22 22 22 22 22 23 23 24 25 25 26 26 27 27 28 29 30 30 31 31
19 19 19 20 20 20 21 22 22 22 22 22 22 22 22 22 22 23 24 24 24 24 24 24 25 25 25 26 27 28 28 29 30 30 31 31 31 31
20 20 21 22 22 22 22 22 23 24 24 24 23 23 23 24 24 24 25 25 25 25 26 26 26 26 26 27 27 28 29 30 31 31 31 31 31 31
21 22 22 23 23 23 24 24 25 25 26 26 25 24 24 25 25 24 25 25 26 26 26 26 26 26 27 28 28 29 30 30 31 31 31 31 32 32
22 23 23 24 24 24 25 25 25 26 26 25 26 26 26 26 25 25 25 25 26 26 27 27 27 27 28 29 30 30 30 31 31 31 31 32 32 33
23 23 24 24 25 25 26 26 26 26 26 26 26 26 26 26 25 26 26 27 27 27 28 28 28 29 29 30 30 30 31 31 32 32 32 32 33 33
25 25 25 26 26 27 27 26 26 26 26 27 27 27 27 27 27 26 26 27 27 27 28 28 29 30 30 30 30 31 31 32 33 33 33 33 33 34
26 26 26 27 27 27 26 26 26 26 26 26 27 27 27 27 27 27 27 27 28 28 29 30 31 31 31 30 31 32 33 33 34 34 34 35 35 35
26 26 26 25 25 25 25 25 24 24 24 25 26 27 27 27 28 28 28 28 29 30 30 31 31 32 32 32 32 33 34 35 35 35 35 36 36 37
26 26 26 25 25 24 24 24 24 24 24 24 25 26 26 27 27 28 29 29 29 30 31 32 32 33 33 33 34 34 35 36 36 37 37 37 37 37
25 26 25 25 24 24 24 24 24 24 24 25 26 27 27 28 28 29 30 30 31 31 32 32 33 34 34 35 35 35 36 36 37 37 38 39 38 38
26 26 25 25 23 23 23 23 23 24 25 26 26 27 28 29 29 29 30 31 31 32 33 34 34 34 35 35 35 35 36 36 37 37 38 38 39 39
Wind_Direction
281 282 282 282 282 283 288 290 289 286 281 279 279 279 280 284 285 282 279 280 279 281 283 287 291 292 292 293 293 291 287 283 284 285 286 287 288 288
278 278 279 281 283 282 282 284 288 288 287 286 282 280 281 284 288 287 283 281 281 282 284 288 291 292 292 289 291 291 288 286 286 286 285 287 288 287
278 277 278 280 282 282 282 282 284 286 286 287 284 283 282 284 287 288 287 286 286 285 286 289 290 291 291 291 292 292 290 288 287 286 285 286 288 288
278 276 275 277 280 282 283 283 283 284 285 285 288 288 284 283 286 289 289 289 289 289 289 290 291 292 290 289 292 294 293 292 289 288 287 288 289 290
274 274 275 275 276 277 280 281 278 280 284 286 288 289 289 287 285 288 291 292 293 293 293 293 294 294 291 290 292 293 294 294 293 291 290 289 289 290
275 274 273 272 273 273 275 277 276 277 281 285 286 287 288 289 285 286 289 291 292 293 293 293 293 294 292 292 291 291 292 293 292 292 291 292 291 291
275 275 274 272 271 271 273 274 277 277 278 282 284 285 286 289 287 287 287 288 290 291 292 292 294 294 293 293 293 292 292 293 293 292 292 293 293 292
273 274 274 274 273 271 271 273 274 276 277 279 282 285 287 288 290 290 290 290 291 292 293 294 294 295 295 295 294 294 293 293 293 293 293 294 294 293
272 274 273 274 274 273 273 274 275 277 278 279 281 284 285 287 290 291 291 292 293 293 294 294 295 296 297 297 296 296 295 294 294 294 294 294 294 294
273 274 275 273 271 272 273 273 274 276 278 280 281 283 285 286 288 291 292 293 293 294 294 295 295 296 297 298 298 298 296 296 296 296 296 295 295 295
275 275 275 274 273 273 273 273 274 276 277 278 280 283 283 285 287 289 291 292 293 293 293 295 295 296 296 296 297 297 296 296 297 297 297 296 296 296
276 275 276 276 275 275 275 273 274 276 276 277 278 279 281 284 286 288 291 292 292 292 292 293 294 295 296 296 297 297 297 298 298 299 299 297 296 296
275 276 277 277 277 277 277 276 274 275 276 277 277 278 279 281 284 287 288 290 292 293 293 293 295 296 297 298 299 299 299 299 299 300 299 298 297 297
275 276 277 277 276 277 277 277 276 275 276 277 276 277 279 280 282 285 288 289 291 293 295 295 296 298 299 300 301 301 301 300 300 300 300 299 299 299
274 276 278 278 277 277 278 278 278 277 277 276 276 277 279 280 282 284 287 290 292 295 296 295 296 299 300 302 302 302 302 302 302 301 301 300 299 299
276 277 278 277 277 278 279 279 279 278 275 276 276 276 277 280 282 284 288 289 292 294 296 296 297 298 300 301 302 303 303 303 303 302 302 301 300 300
278 278 279 278 278 278 279 278 278 277 276 276 276 276 278 280 283 285 287 288 290 292 295 296 297 298 300 302 303 303 304 303 303 303 303 302 301 300
276 277 278 278 278 279 280 278 278 277 277 277 277 277 278 279 282 284 286 288 289 291 293 295 297 298 299 300 302 302 303 303 304 303 303 302 302 301
277 279 280 280 279 280 280 279 279 278 278 278 277 277 279 280 281 284 287 288 289 291 293 294 295 297 298 299 300 301 302 303 303 303 303 302 302 301
277 279 282 281 281 281 280 279 279 278 279 279 279 278 279 280 281 283 285 289 290 291 293 294 295 296 297 298 299 301 302 304 305 304 303 302 302 301
276 279 280 281 282 281 279 279 281 280 280 280 280 280 281 282 283 284 285 287 290 293 293 294 295 297 297 298 299 301 302 303 304 304 303 302 302 301
276 278 278 279 280 279 279 280 281 282 282 282 282 282 283 283 283 284 285 286 288 291 293 294 296 297 297 297 299 300 301 302 302 302 303 303 302 302
277 278 277 276 278 278 279 280 281 283 284 284 284 284 283 284 284 285 287 288 289 291 293 295 296 296 297 298 299 300 301 302 303 304 304 303 303 304
Height
5831 5831 5830 5829 5829 5828 5827 5826 5826 5825 5824 5823 5823 5822 5821 5820 5819 5818 5817 5816 5816 5815 5814 5813 5812 5811 5810 5808 5807 5806 5805 5804 5803 5802 5800 5799 5798 5797
5829 5828 5828 5827 5826 5826 5825 5824 5823 5823 5822 5821 5820 5819 5818 5818 5817 5816 5814 5814 5813 5812 5812 5811 5809 5808 5807 5805 5804 5803 5801 5800 5799 5798 5796 5795 5794 5792
5826 5826 5825 5825 5824 5823 5822 5821 5821 5820 5819 5819 5818 5817 5816 5815 5814 5813 5812 5811 5810 5810 5809 5808 5806 5805 5803 5802 5800 5799 5798 5796 5795 5793 5792 5791 5789 5788
5823 5823 5822 5822 5821 5821 5820 5819 5818 5818 5817 5816 5815 5814 5814 5813 5812 5811 5810 5809 5808 5806 5805 5804 5803 5801 5799 5798 5796 5795 5793 5791 5790 5788 5787 5786 5784 5783
5820 5820 5819 5819 5818 5818 5817 5816 5816 5815 5814 5814 5813 5812 5811 5810 5809 5808 5807 5806 5805 5803 5802 5800 5799 5797 5795 5794 5792 5790 5788 5787 5785 5783 5782 5780 5778 5777
5816 5816 5816 5815 5815 5814 5814 5813 5813 5812 5811 5811 5810 5809 5808 5807 5806 5805 5804 5803 5801 5800 5798 5796 5795 5793 5791 5789 5788 5786 5784 5782 5780 5778 5776 5774 5772 5771
5813 5812 5812 5812 5811 5811 5811 5810 5809 5809 5808 5808 5807 5806 5805 5804 5803 5801 5800 5799 5797 5796 5794 5792 5790 5788 5786 5784 5782 5780 5778 5776 5774 5772 5770 5768 5766 5764
5809 5809 5808 5808 5807 5807 5807 5806 5806 5805 5805 5804 5803 5802 5801 5800 5798 5797 5796 5794 5793 5792 5789 5787 5785 5783 5781 5779 5777 5774 5772 5771 5769 5766 5764 5762 5759 5757
5805 5804 5804 5803 5803 5803 5803 5802 5802 5801 5801 5800 5799 5798 5797 5795 5794 5793 5791 5790 5788 5786 5784 5782 5780 5778 5776 5773 5771 5769 5766 5764 5762 5760 5758 5755 5752 5750
5800 5800 5799 5799 5799 5798 5798 5797 5797 5797 5796 5795 5794 5793 5792 5790 5789 5788 5786 5785 5783 5781 5779 5777 5775 5773 5770 5768 5765 5763 5760 5758 5755 5753 5750 5748 5745 5742
5795 5795 5794 5794 5793 5793 5793 5792 5792 5791 5790 5789 5789 5788 5786 5785 5784 5783 5781 5779 5777 5775 5773 5771 5769 5767 5764 5762 5759 5756 5754 5751 5748 5746 5743 5740 5737 5734
5790 5790 5789 5788 5788 5787 5787 5786 5786 5785 5785 5784 5783 5782 5781 5780 5778 5777 5775 5774 5771 5769 5767 5765 5763 5761 5758 5755 5752 5749 5746 5744 5741 5738 5734 5731 5728 5725
5784 5784 5783 5782 5782 5781 5780 5780 5780 5779 5778 5778 5777 5776 5775 5774 5772 5771 5769 5767 5765 5763 5761 5759 5756 5753 5751 5749 5745 5742 5739 5736 5732 5729 5726 5722 5719 5716
5778 5778 5777 5776 5775 5774 5774 5773 5773 5772 5771 5770 5770 5769 5768 5767 5765 5764 5762 5760 5758 5756 5754 5751 5749 5746 5744 5741 5738 5735 5731 5727 5724 5721 5717 5714 5710 5707
5771 5771 5770 5769 5768 5767 5767 5766 5765 5764 5764 5763 5762 5762 5761 5759 5758 5756 5755 5753 5751 5749 5746 5744 5742 5739 5736 5733 5730 5727 5723 5719 5715 5712 5708 5705 5702 5698
5764 5763 5763 5762 5761 5760 5759 5758 5757 5756 5756 5755 5755 5754 5753 5752 5750 5749 5747 5745 5744 5742 5739 5736 5734 5731 5728 5725 5722 5718 5715 5711 5707 5703 5700 5696 5692 5689
5756 5756 5755 5754 5753 5752 5751 5750 5749 5748 5747 5747 5746 5746 5745 5744 5742 5741 5740 5738 5736 5734 5731 5729 5726 5723 5720 5717 5714 5710 5706 5702 5698 5695 5691 5688 5684 5680
5749 5748 5747 5746 5745 5744 5742 5741 5740 5739 5739 5738 5738 5737 5736 5735 5735 5733 5731 5730 5728 5726 5724 5721 5718 5715 5712 5709 5706 5702 5698 5694 5690 5686 5682 5678 5675 5671
5740 5739 5738 5737 5736 5735 5733 5732 5731 5731 5730 5730 5729 5728 5727 5727 5726 5725 5723 5721 5720 5718 5715 5713 5710 5707 5704 5701 5698 5693 5689 5685 5681 5677 5673 5669 5665 5661
5732 5731 5730 5729 5727 5726 5725 5724 5723 5722 5722 5721 5720 5720 5719 5718 5717 5716 5715 5713 5711 5709 5707 5704 5701 5698 5695 5692 5688 5685 5680 5676 5672 5667 5663 5659 5655 5650
5724 5723 5722 5721 5719 5718 5717 5716 5716 5715 5714 5713 5712 5711 5710 5709 5708 5707 5706 5704 5702 5700 5698 5695 5692 5688 5685 5681 5678 5675 5671 5666 5662 5657 5653 5649 5645 5641
5715 5714 5713 5713 5712 5711 5710 5709 5709 5708 5707 5706 5705 5704 5702 5701 5699 5698 5696 5695 5693 5691 5688 5685 5682 5678 5675 5672 5668 5665 5661 5656 5651 5646 5642 5638 5633 5629
5707 5706 5706 5705 5704 5704 5703 5702 5701 5700 5699 5698 5697 5695 5693 5692 5691 5689 5687 5685 5683 5681 5678 5675 5672 5669 5665 5662 5658 5654 5650 5646 5641 5637 5632 5627 5623 5618